Regional Weather Roundup
Issued by NWS

Home | Current Version | Previous Version | Graphics & Text | Print | Product List | Glossary Off
Versions: 1 2 3 4 5 6 7 8 9 10 11 12 13 14 15 16 17 18 19 20 21 22 23 24 25 26 27 28 29 30 31 32 33 34 35 36 37 38 39 40 41 42 43 44 45 46 47 48 49 50

000
ASUS43 KTOP 290759
RWRKS

WEATHER ROUNDUP FOR KANSAS
NATIONAL WEATHER SERVICE GOODLAND KS
300 AM CDT SAT AUG 29 2015

NOTE:  "FAIR" INDICATES FEW OR NO CLOUDS BELOW 12,000 FEET WITH NO
SIGNIFICANT WEATHER AND/OR OBSTRUCTIONS TO VISIBILITY.

KSZ001>006-013>018-027>032-041>047-290900-
NORTHWEST KANSAS

CITY           SKY/WX    TMP DP  RH WIND       PRES   REMARKS
GOODLAND       CLEAR     58  54  86 W5        30.17F
HAYS           CLEAR     63  54  72 NW5       30.06S
HILL CITY      CLEAR     60  58  92 CALM      30.08F
RUSSELL        CLEAR     62  61  96 NW5       30.03F
$$

KSZ061>065-074>080-084>089-290900-
SOUTHWEST KANSAS

CITY           SKY/WX    TMP DP  RH WIND       PRES   REMARKS
DODGE CITY     CLEAR     61  59  93 N3        30.09S
ELKHART          N/A     68  57  68 N5          N/A
GARDEN CITY    CLEAR     65  59  81 NE8       30.11S
GREAT BEND     CLEAR     64  57  77 NW6       30.04F
LIBERAL        PTCLDY    72  59  64 E9        30.12R
PRATT          CLEAR     64  63  94 CALM      30.05S
$$

KSZ066>073-081>083-090>101-290900-
SOUTHEAST KANSAS

CITY           SKY/WX    TMP DP  RH WIND       PRES   REMARKS
CHANUTE        CLOUDY    70  68  93 S3        29.96S
COFFEYVILLE    CLOUDY    70  68  93 NE6       29.97R
HUTCHINSON     CLEAR     68  63  84 CALM      30.02S
NEWTON         MOCLDY    68  61  77 N6        30.02S
PARSONS        MOCLDY    71  69  93 SE3       29.97S
WICHITA INTL   PTCLDY    72  66  81 N9        29.98S
WICHITA JABRA  CLEAR     69  66  90 N8        29.98S
$$

KSZ007>012-019>026-033>040-048>060-102>105-290900-
NORTHEAST KANSAS

CITY           SKY/WX    TMP DP  RH WIND       PRES   REMARKS
CONCORDIA      CLEAR     63  61  93 NW5       30.02S
EMPORIA        MOCLDY    68  65  90 NW8       29.97S
LAWRENCE       CLOUDY    69  67  93 NW6       29.93S
MANHATTAN      MOCLDY    66  64  93 W3        29.97F
OLATHE IND     CLOUDY    70  69  97 SW6       29.94F
OLATHE EXE     CLOUDY    70  68  93 S7        29.93F
SALINA         CLEAR     67  62  84 NW5       30.00F
TOPEKA BILLARD PTCLDY    68  66  93 W6        29.94F
TOPEKA FORBES  CLEAR     68  64  87 NW8       29.95S
$$


USA.gov is the U.S. government's official web portal to all federal, state and local government web resources and services.